Location: Kaarina
(60.4167°N, 22.4167°E)
Time: 03:17:25
(UTC+03:00)

SL-08 RB Rocket - Pass Details

Date: 24 August 2019
Orbit: 648 x 684 km, 97.9° (Epoch: 18 September)

Event Time Altitude Azimuth Distance (km) Brightness Sun altitude
Rises 21:45:47 0° 174° (S) 2,995 6.7 -5.7°
Reaches altitude 10° 21:48:01 10° 178° (S) 2,092 5.9 -6.0°
Maximum altitude 21:52:32 59° 258° (WSW) 782 4.4 -6.4°
Drops below altitude 10° 21:57:09 10° 338° (NNW) 2,129 7.3 -6.9°
Sets 21:59:27 0° 343° (NNW) 3,053 8.1 -7.1°
